Location: Gro� Glienicke
(52.4675°N, 13.1079°E)
Time: 17:38:13
(UTC+00:00)

Genesis I - Pass Details

Date: 06 July 2020
Orbit: 509 x 513 km, 64.5° (Epoch: 13 August)

Event Time Altitude Azimuth Distance (km) Brightness Sun altitude
Exits shadow 22:01:09 16° 202° (SSW) 1,395 4.9 -13.4°
Maximum altitude 22:04:04 55° 128° (SE) 618 3.3 -13.5°
Drops below altitude 10° 22:07:53 10° 50° (NE) 1,739 6.2 -13.7°
Sets 22:10:05 0° 46° (NE) 2,629 7.2 -13.7°
